www.pogodaiklimat.ru

Погода и климат >> Архив погоды >> Россия >> Ненецкий АО >> Мыс Микулкин


ПОГОДА на Мысе Микулкин

  • Прогноз погоды на Мысе Микулкин
  • Монитор погоды на Мысе Микулкин
  • Климат города

АРХИВ ПОГОДЫ на Мысе Микулкин

Время (UTC), дата Ветер
(напр.,м/с)
 
Видим.   Явления Облачность Т
(С)
Тd
(С)
f
(%)
Тe
(С)
Тes
(С)
Комфортность P
(гПа)
Po
(гПа)
Тmin
(С)
Tmax
(С)
R
(мм)
R24
(мм)
S
(см)
06 19.05 ЮВ 2 20 км 10/10 600 м
[Sc]
-0.3 -2.1 88 -4 -4 1016.5 1015.7
09 19.05 ЮЗ 2 20 км 10/10 600 м
[Sc]
+0.2 -0.9 92 -4 -4 1016.3 1015.4
12 19.05 ЮЗ 3 20 км 10/10 600 м
[Sc]
+0.6 -0.1 95 -4 -4 1015.3 1014.4
15 19.05 ЮЗ 2 20 км 10/10 600 м
[Sc]
+0.5 -0.4 94 -3 -3 1014.0 1013.1 +0.8
18 19.05 Ю 2 20 км 9/9 600 м
[Sc]
0.0 -0.7 95 -4 -4 1012.1 1011.3
21 19.05 ЮЗ 3 20 км 10/10 600 м
[Sc]
+0.5 -0.6 92 -4 -4 1010.0 1009.1
00 20.05 ЮЗ 3 20 км 10/10 600 м
[Sc]
+0.7 -0.4 92 -4 -4 1007.3 1006.5
03 20.05 ЮЗ 4 20 км 8/0
[Ac trans]
-0.1 -0.8 95 -6 -5 1005.4 1004.5 -0.3 26
06 20.05 З 4 20 км 10/9 600 м
[Sc Ac und]
+0.7 +0.2 96 -5 -5 1004.2 1003.3
09 20.05 СЗ 2 1000 м туман 10/10 600 м
[Sc]
+1.5 +0.7 94 -2 -2 1004.1 1003.2
12 20.05 С 6 20 км {туман} 8/6 600 м
[Sc Ac trans]
+1.9 +0.3 89 -4 -3 1004.1 1003.2
15 20.05 С 9
{14}
20 км 10/10 600 м
[Sc]
+0.3 -2.1 84 -7 -7 1005.9 1005.0 +2.2
18 20.05 С 9
{14}
20 км 6/5 600 м
[Sc Ci fib]
-0.8 -2.8 86 -9 -9 1006.4 1005.5
21 20.05 СЗ 10
{13}
20 км 8/8 600 м
[Sc]
-1.4 -3.6 85 -10 -10 1005.4 1004.6
00 21.05 СЗ 9
{14}
20 км 10/10 600 м
[Sc]
-1.3 -2.2 94 -10 -10 1003.4 1002.5
03 21.05 СВ 8
{13}
20 км 10/10 300 м
[St]
+0.1 -0.6 95 -8 -8 1000.0 999.1 -1.5 25
06 21.05 СВ 8
{11}
20 км 10/10 300 м
[St]
-0.8 -1.1 98 -9 -9 1002.3 1001.4
09 21.05 СВ 9
{11}
20 км 10/10 600 м
[Sc]
-0.2 -0.8 96 -8 -8 1005.3 1004.5
12 21.05 СВ 8
{10}
20 км 8/6 600 м
[Sc As trans]
-0.2 -1.5 91 -8 -7 1008.5 1007.7
15 21.05 СВ 10
{12}
20 км 9/9 600 м
[Sc]
-0.5 -1.9 90 -9 -9 1010.2 1009.3 +0.2
18 21.05 СВ 11
{14}
20 км 9/9 300 м
[St]
-1.4 -3.3 87 -10 -10 1010.8 1010.0
21 21.05 СВ 8
{14}
20 км 10/10 600 м
[Sc]
-2.2 -4.2 86 -10 -10 1011.9 1011.0
00 22.05 СВ 7
{12}
20 км 10/8 300 м
[St Ac und]
-2.2 -4.4 85 -10 -10 1012.3 1011.5
03 22.05 В 6 20 км 10/10 600 м
[Sc]
-2.2 -4.4 85 -9 -9 1012.6 1011.7 -2.4 24
06 22.05 СВ 2 20 км 10/10 600 м
[Sc]
-1.7 -4.4 82 -6 -6 1013.1 1012.2
09 22.05 ЮЗ 2 20 км 10/10 600 м
[Sc]
-1.6 -4.6 80 -5 -5 1013.1 1012.2
12 22.05 ЮЗ 4 20 км 10/10 600 м
[Sc]
-1.5 -3.5 86 -7 -7 1012.8 1011.9
15 22.05 ЮЗ 4 20 км 10/10 600 м
[Sc]
-1.4 -2.2 94 -7 -7 1011.4 1010.5 -1.1
18 22.05 ЮЗ 5 20 км 9/9 600 м
[Sc]
-0.8 -1.7 94 -7 -7 1009.8 1008.9
21 22.05 ЮЗ 8
{10}
20 км 10/0
[Ac und]
-0.8 -1.9 92 -9 -9 1007.5 1006.6
00 23.05 ЮЗ 10
{13}
20 км 10/0
[Ac und]
-0.5 -1.8 91 -9 -9 1004.9 1004.0
03 23.05 З 9
{12}
4000 м слабый снег 10/10 300 м
[Frnb Ns]
-0.5 -0.9 97 -9 -9 1002.8 1001.9 -1.4 0.0 24
06 23.05 ЮЗ 8
{12}
4000 м слабый снег 10/10 300 м
[Frnb Ns]
-0.4 -0.7 98 -8 -8 1001.5 1000.6
09 23.05 З 5 20 км {снег} 10/10 600 м
[Sc]
-0.3 -0.5 99 -7 -7 1001.2 1000.3
12 23.05 З 5 20 км в посл. час дождь со снегом 10/10 600 м
[Sc]
+0.1 -0.2 98 -6 -6 1001.2 1000.3
15 23.05 СЗ 6
{10}
20 км 10/10 600 м
[Sc]
+0.9 +0.1 94 -6 -6 1001.6 1000.7 +0.9 0.3
18 23.05 С 7
{10}
20 км 5/4 600 м
[Sc Ac trans]
+0.1 -1.2 91 -7 -7 1003.1 1002.2
21 23.05 СЗ 6 20 км 3/3 600 м
[Sc]
-1.8 -3.1 91 -9 -9 1003.5 1002.6
00 24.05 СЗ 7 20 км 9/9 600 м
[Sc]
-1.2 -2.0 94 -9 -9 1003.1 1002.2
03 24.05 СЗ 10
{14}
20 км 8/8 600 м
[Sc]
+0.1 -1.6 88 -8 -8 1002.5 1001.6 24
06 24.05 СЗ 11
{14}
20 км 9/9 600 м
[Sc]
+0.7 -0.6 91 -8 -8 1002.5 1001.6
09 24.05 СЗ 13
{17}
20 км 8/3 600 м
[Sc Ac trans Ci]
+1.5 -1.5 80 -7 -7 1004.0 1003.2
12 24.05 СЗ 12
{17}
20 км 8/8 600 м
[Sc]
+1.2 -1.5 82 -7 -7 1006.1 1005.2
15 24.05 СЗ 10
{16}
4000 м слабый ливневой дождь со снегом 8/8 600 м
[Cb cap]
+0.1 -1.0 92 -8 -8 1007.7 1006.8 +1.7 0.4
18 24.05 СЗ 6
{13}
20 км {ливн. осадки} 3/0
[Ac trans Ci fib]
-0.5 -2.1 89 -7 -7 1009.1 1008.2
21 24.05 СЗ 7
{10}
20 км 6/4 600 м
[Sc Ac trans]
-1.1 -2.3 92 -9 -9 1009.7 1008.8
00 25.05 СЗ 7 20 км 6/6 600 м
[Sc]
-0.9 -1.8 94 -8 -8 1010.2 1009.3
03 25.05 З 8
{10}
20 км 8/3 600 м
[Sc Ac cast]
+0.1 -1.4 90 -7 -7 1010.4 1009.6 -2.3 0.0 22
06 25.05 З 7
{10}
20 км 10/8 600 м
[Sc Ac und]
+1.2 -0.9 86 -6 -5 1011.3 1010.4
09 25.05 З 5 20 км 9/9 600 м
[Sc]
+0.4 -0.5 94 -6 -5 1011.7 1010.8
12 25.05 Ю 4 20 км 8/1 600 м
[Sc Ac trans Ci fib]
+0.4 -0.9 91 -5 -2 1011.4 1010.5
15 25.05 Ю 3 20 км 10/8 600 м
[Sc Ac und]
0.0 -0.9 94 -5 -5 1010.4 1009.5 +1.7
21 25.05 В 8
{10}
2000 м сильный снег 10/10 300 м
[Frnb Ns]
-0.4 -0.6 99 -8 -8 1006.5 1005.7
00 26.05 В 12
{14}
2000 м сильный снег {метель} 10/10 300 м
[Frnb Ns]
-0.8 -1.1 98 -10 -10 1003.8 1002.9
03 26.05 В 14
{19}
1000 м сильный снег {метель} 10/10 300 м
[Frnb Ns]
-1.2 -1.6 97 -11 -11 1002.0 1001.1 -1.3 2 25

 

Местоположение метеостанции Мыс Микулкин (Ненецкий АО, Россия): широта 67.80 долгота 46.66 высота над уровнем моря 6 м.

В архиве по умолчанию представлена погода на Мысе Микулкин за последнюю неделю. Архивные данные за месяц целиком и за предыдущие месяцы, начиная с января 2011 года, Вы можете получить, выбрав интересующий диапазон дат из раскрывающегося списка и нажав кнопку "Ввод!".

Внимание! Время в таблицах - всемирное. Для получения местного времени необходимо прибавить поправку, которая на Мысе Микулкин равна 3 ч.

Смотрите также архив погоды в соседних городах и на ближайших метеорологических станциях:

Погода в Индиге (Ненецкий АО, Россия) (86 км)
Погода в Шойне (Ненецкий АО, Россия) (105 км)
Погода в Нижней Пеше (Ненецкий АО, Россия) (126 км)
Погода в Бугрино (Ненецкий АО, Россия) (156 км)
Погода в Неси (Ненецкий АО, Россия) (158 км)
Погода в Канином Носе (Ненецкий АО, Россия) (168 км)
Погода в Сенгейском Шаре (Ненецкий АО, Россия) (205 км)
Погода в Коткино (Ненецкий АО, Россия) (209 км)
Погода на Колгуевом Острове (Ненецкий АО, Россия) (216 км)
Погода на Моржовец Острове (Архангельская область, Россия) (216 км)

Пояснения к столбцам:

Ветер - указаны скорость ветра в м/с - средняя за 10 мин, порывы в срок и между сроками (в фигурных скобках) и направление, откуда дует ветер: С - северный, СВ - северо-восточный, В - восточный, ЮВ - юго-восточный, Ю - южный, ЮЗ - юго-западный, З - западный, СЗ - северо-западный.
Видимость - горизонтальная дальность видимости в метрах или километрах. При видимости от 1 до 10 км при отсутствии осадков обычно наблюдается дымка, при ухудшении видимости до 1 км и менее - туман. В сухую погоду видимость может ухудшаться дымом, пылью или мглою.
Явления - указаны атмосферные явления, наблюдавшиеся в срок или в последний час перед сроком; фигурными скобками обозначены явления, наблюдавшиеся между сроками (за 1-3 часа до срока); квадратными скобками обозначены град или гололедные отложения с указанием их диаметра в мм.
Облачность - указаны через наклонную черту общая и нижняя облачность в баллах и высота нижней границы облаков в метрах; квадратными скобками обозначены формы облаков: Ci - перистые, Cs - перисто-слоистые, Cc - перисто-кучевые, Ac - высококучевые, As - высокослоистые, Sc - слоисто-кучевые, Ns - слоисто-дождевые, Cu - кучевые, Cb - кучево-дождевые. Подробнее классификацию облаков см. в Атласе облаков (PDF).
T - Температура воздуха - температура, измеренная на высоте 2 м над землей.
Td - Температура точки росы - температура, при понижении до которой содержащийся в воздухе водяной пар достигнет насыщения.
f - Относительная влажность воздуха - влажноcть воздуха, измеренная на высоте 2 м над землей.
Te - Эффективная температура - температура, которую ощущает одетый по сезону человек в тени. Характеристика душности погоды. При расчете учитывается влияние влажности воздуха и скорости ветра на теплоощущения человека.
Tes - Эффективная температура на солнце - температура, которую ощущает человек, с поправкой на солнечный нагрев. Характеристика знойности погоды. Зависит от высоты солнца над горизонтом, облачности и скорости ветра. Ночью, в пасмурную погоду, а также при ветре 12 м/с и более поправка равна нулю.
P - Атмосферное давление - приведенное к уровню моря атмосферное давление.
Po - Атмосферное давление - измеренное на уровне метеостанции атмосферное давление.
Tmin - Минимальная температура - минимум температуры воздуха на высоте 2 м над землей.
Tmax - Максимальная температура - максимум температуры воздуха на высоте 2 м над землей.
R - Количество осадков - Количество выпавших осадков за период времени, мм. При наведении курсора мыши на число - период времени, за который выпало указанное количество осадков.
R24 - Количество осадков - Количество выпавших осадков за 24 часа, мм.
S - Снежный покров - Высота снежного покрова, см. При наведении курсора мыши на число - состояние снежного покрова и степень покрытия местности в баллах.